Buckland, AK

9:27 AM AKDT on May 23, 2017 (GMT -0800)
Buckland

Weather History for PABL - February, 2013

Change the Weather History Date:

Thursday, February 7, 2013

  Actual Average (PASK) Record (PASK)
Temperature  
Mean Temperature -20 °F -  
Max Temperature -14 °F 4 °F 26 °F (2012)
Min Temperature -27 °F -5 °F -50 °F (1999)
Degree Days  
Heating Degree Days 86    
Moisture  
Dew Point -24 °F    
Average Humidity 75    
Maximum Humidity 100    
Minimum Humidity 48    
Precipitation  
Precipitation 0.00 in - - ()
Sea Level Pressure  
Sea Level Pressure 29.66 in    
Wind  
Wind Speed 8 mph (NW)    
Max Wind Speed 16 mph    
Max Gust Speed -    
Visibility 10 miles    
Events      
Averages and records for this station are not official NWS values.
T = Trace of Precipitation, MM = Missing Value Source: NWS Daily Summary

Daily Weather History Graph

Daily Weather History Graph

Search for Another Location

Airport or City:

Trip Planner

Search our weather history database for the weather conditions in past years. The results will help you decide how hot, cold, wet, or windy it might be!

Date:

Astronomy

Feb. 07, 2013 Rise Set
Actual Time 10:16 AM AKST 5:41 PM AKST
Civil Twilight 9:17 AM AKST 6:40 PM AKST
Nautical Twilight 8:16 AM AKST 7:42 PM AKST
Astronomical Twilight 7:17 AM AKST 8:41 PM AKST
Moon 8:52 AM AKST (2/7) 2:38 PM AKST (2/7)
Length of Visible Light 9h 22m
Length of Day
7h 24m
Waning Crescent, 8% of the Moon is Illuminated
Feb 7
Waning Crescent
Feb 9
New
Feb 17
First Quarter
Feb 25
Full
Mar 4
Last Quarter

Hourly Weather History & Observations

Time (AKST) Temp. Windchill Dew Point Humidity Pressure Visibility Wind Dir Wind Speed Gust Speed Precip Events Conditions
12:16 AM -16.6 °F -32.9 °F - N/A% 29.83 in 10.0 mi NW 6.9 mph - N/A   Unknown
12:36 AM - - - N/A% 29.82 in 10.0 mi NW 8.1 mph - N/A   Unknown
12:56 AM -18.4 °F -35.1 °F -18.4 °F 100% 29.83 in 10.0 mi NW 6.9 mph - N/A   Unknown
1:16 AM -18.4 °F -37.9 °F - N/A% 29.82 in 10.0 mi NNW 9.2 mph - N/A   Unknown
1:36 AM -18.4 °F -36.6 °F -25.6 °F 70% 29.82 in 10.0 mi North 8.1 mph - N/A   Unknown
1:56 AM -18.4 °F -35.1 °F - N/A% 29.82 in 10.0 mi NNW 6.9 mph - N/A   Unknown
2:16 AM - - - N/A% 29.81 in 10.0 mi NW 9.2 mph - N/A   Unknown
2:36 AM -20.2 °F -41.3 °F - N/A% 29.80 in 10.0 mi NW 10.4 mph - N/A   Unknown
2:56 AM -20.2 °F -33.5 °F -27.4 °F 69% 29.80 in 10.0 mi NW 4.6 mph - N/A   Unknown
3:16 AM -18.4 °F -35.1 °F -18.4 °F 100% 29.79 in 10.0 mi NNW 6.9 mph - N/A   Unknown
3:36 AM -18.4 °F -37.9 °F -25.6 °F 70% 29.78 in 10.0 mi NW 9.2 mph - N/A   Unknown
3:56 AM - - - N/A% 29.78 in 10.0 mi NW 10.4 mph - N/A   Unknown
4:16 AM -20.2 °F -41.3 °F -25.6 °F 76% 29.78 in 10.0 mi NW 10.4 mph - N/A   Unknown
4:36 AM -22.0 °F -37.7 °F -25.6 °F 83% 29.77 in 10.0 mi WNW 5.8 mph - N/A   Unknown
4:56 AM - - - N/A% 29.75 in 10.0 mi NNW 8.1 mph - N/A   Unknown
5:16 AM -20.2 °F -41.3 °F -25.6 °F 76% 29.75 in 10.0 mi NNW 10.4 mph - N/A   Unknown
5:36 AM - - - N/A% 29.74 in 10.0 mi NNW 6.9 mph - N/A   Unknown
5:56 AM -22.0 °F -41.0 °F - N/A% 29.74 in 10.0 mi NNW 8.1 mph - N/A   Unknown
6:16 AM -20.2 °F -38.8 °F - N/A% 29.74 in 10.0 mi NNW 8.1 mph - N/A   Unknown
6:36 AM - - - N/A% 29.72 in 10.0 mi NW 8.1 mph - N/A   Unknown
6:56 AM -23.8 °F -35.0 °F -29.2 °F 76% 29.72 in 10.0 mi NW 3.5 mph - N/A   Unknown
7:16 AM - - - N/A% 29.71 in 10.0 mi NW 9.2 mph - N/A   Unknown
7:36 AM - - - N/A% 29.70 in 10.0 mi NNW 10.4 mph - N/A   Unknown
7:56 AM -22.0 °F -33.0 °F - N/A% 29.70 in 10.0 mi NW 3.5 mph - N/A   Unknown
8:16 AM - - - N/A% 29.69 in 10.0 mi Calm Calm - N/A   Unknown
8:36 AM -23.8 °F -39.8 °F - N/A% 29.69 in 10.0 mi NNW 5.8 mph - N/A   Unknown
8:56 AM - - - N/A% 29.68 in 10.0 mi North 4.6 mph - N/A   Unknown
9:16 AM - - - N/A% 29.67 in 10.0 mi NW 6.9 mph - N/A   Unknown
9:36 AM -22.0 °F -35.6 °F - N/A% 29.67 in 10.0 mi NNW 4.6 mph - N/A   Unknown
9:56 AM - - - N/A% 29.67 in 10.0 mi Calm Calm - N/A   Unknown
10:16 AM -23.8 °F - - N/A% 29.67 in 10.0 mi Calm Calm - N/A   Unknown
10:56 AM -27.4 °F - - N/A% 29.66 in 10.0 mi Calm Calm - N/A   Unknown
11:16 AM - - - N/A% 29.66 in 10.0 mi Calm Calm - N/A   Unknown
11:36 AM -20.2 °F -38.8 °F - N/A% 29.65 in 10.0 mi NW 8.1 mph - N/A   Unknown
12:16 PM - - - N/A% 29.63 in 10.0 mi NW 9.2 mph - N/A   Unknown
12:36 PM -18.4 °F -36.6 °F - N/A% 29.63 in 10.0 mi NNW 8.1 mph - N/A   Unknown
12:56 PM -18.4 °F -36.6 °F -20.2 °F 91% 29.62 in 10.0 mi NNW 8.1 mph - N/A   Unknown
1:16 PM -18.4 °F -40.2 °F -23.8 °F 76% 29.61 in 10.0 mi NW 11.5 mph - N/A   Unknown
1:36 PM -18.4 °F -35.1 °F -18.4 °F 100% 29.61 in 10.0 mi NW 6.9 mph - N/A   Unknown
1:56 PM -18.4 °F -37.9 °F -25.6 °F 70% 29.61 in 10.0 mi NW 9.2 mph - N/A   Unknown
2:16 PM -14.8 °F -35.6 °F -23.8 °F 64% 29.60 in 10.0 mi NW 11.5 mph - N/A   Unknown
2:36 PM -16.6 °F -37.9 °F - N/A% 29.60 in 10.0 mi NW 11.5 mph - N/A   Unknown
2:56 PM -14.8 °F -35.6 °F -25.6 °F 58% 29.59 in 10.0 mi NW 11.5 mph - N/A   Unknown
3:16 PM -14.8 °F -36.6 °F -14.8 °F 100% 29.58 in 10.0 mi NW 12.7 mph - N/A   Unknown
3:36 PM -14.8 °F -35.6 °F - N/A% 29.57 in 10.0 mi NW 11.5 mph - N/A   Unknown
3:56 PM -14.8 °F -37.5 °F -25.6 °F 58% 29.57 in 10.0 mi NW 13.8 mph - N/A   Unknown
4:16 PM -14.8 °F -35.6 °F -18.4 °F 84% 29.58 in 10.0 mi NW 11.5 mph - N/A   Unknown
4:36 PM -14.8 °F -34.6 °F - N/A% 29.57 in 10.0 mi NNW 10.4 mph - N/A   Unknown
4:56 PM -14.8 °F -33.5 °F - N/A% 29.57 in 10.0 mi NNW 9.2 mph - N/A   Unknown
5:16 PM -16.6 °F -41.4 °F - N/A% 29.56 in 10.0 mi NW 16.1 mph - N/A   Unknown
5:36 PM -16.6 °F -36.8 °F -25.6 °F 64% 29.57 in 10.0 mi NNW 10.4 mph - N/A   Unknown
5:56 PM -16.6 °F -37.9 °F -22.0 °F 76% 29.57 in 10.0 mi NNW 11.5 mph - N/A   Unknown
6:16 PM -18.4 °F -42.9 °F -27.4 °F 63% 29.56 in 10.0 mi NNW 15.0 mph - N/A   Unknown
6:36 PM -18.4 °F -41.2 °F -29.2 °F 58% 29.56 in 10.0 mi NNW 12.7 mph - N/A   Unknown
6:56 PM -18.4 °F -39.1 °F -27.4 °F 63% 29.57 in 10.0 mi NNW 10.4 mph - N/A   Unknown
7:16 PM -18.4 °F -37.9 °F -27.4 °F 63% 29.57 in 10.0 mi NNW 9.2 mph - N/A   Unknown
7:36 PM -16.6 °F -35.7 °F -27.4 °F 58% 29.57 in 10.0 mi NW 9.2 mph - N/A   Unknown
7:56 PM -14.8 °F -35.6 °F -14.8 °F 100% 29.57 in 10.0 mi NNW 11.5 mph - N/A   Unknown
8:16 PM -16.6 °F -36.8 °F - N/A% 29.56 in 10.0 mi NW 10.4 mph - N/A   Unknown
8:36 PM -16.6 °F -37.9 °F - N/A% 29.56 in 10.0 mi NNW 11.5 mph - N/A   Unknown
8:56 PM -14.8 °F -37.5 °F -16.6 °F 92% 29.57 in 10.0 mi NNW 13.8 mph - N/A   Unknown
9:16 PM -14.8 °F -37.5 °F - N/A% 29.57 in 10.0 mi NW 13.8 mph - N/A   Unknown
9:56 PM -14.8 °F -32.2 °F - N/A% 29.57 in 10.0 mi NNW 8.1 mph - N/A   Unknown
10:16 PM -14.8 °F -33.5 °F -18.4 °F 84% 29.57 in 10.0 mi NNW 9.2 mph - N/A   Unknown
10:36 PM -14.8 °F -35.6 °F -18.4 °F 84% 29.57 in 10.0 mi NW 11.5 mph - N/A   Unknown
10:56 PM -14.8 °F -34.6 °F -29.2 °F 48% 29.58 in 10.0 mi NNW 10.4 mph - N/A   Unknown
11:16 PM -16.6 °F -36.8 °F -25.6 °F 64% 29.58 in 10.0 mi NW 10.4 mph - N/A   Unknown
11:36 PM -16.6 °F -34.4 °F -22.0 °F 76% 29.59 in 10.0 mi NNW 8.1 mph - N/A   Unknown
11:56 PM -16.6 °F -37.9 °F -27.4 °F 58% 29.59 in 10.0 mi NNW 11.5 mph - N/A   Unknown